[[{"header":{"parameterUnit":"m.s-1","parameterCategory":1,"la1":30.2991,"la2":30.254,"lo1":-89.0895,"lo2":-89.0444,"dy":0.0017,"dx":0.0017,"nx":28,"ny":28,"refTime":"2024-02-08T09:00:00:Z","depth":0,"parameterNumber":2,"parameterNumberName":"U-component_of_WINDS"},"data":[0,0,0,0,0,0,0,0,0,0,0,0,0,0,0,0,0,0,0,0,0,0,0,0,0,0,0,0,0,0,0,0,0,0,0,0,0,0,0,0,0,0,0,0,0,0,0,0,0,0,0,0,0,0,0,0,0,0,-4.0997,-4.0999,0,-4.1118,-4.1119,-4.112,-4.1094,-4.1091,-4.1089,-4.1087,-4.1211,-4.1216,-4.1222,0,0,0,0,0,0,0,0,0,0,0,0,0,-4.0747,-4.0752,-4.0997,-4.0999,-4.1,-4.1117,-4.1119,-4.1121,-4.1094,-4.1091,-4.1088,-4.1086,-4.1209,-4.1215,-4.1222,0,0,0,0,0,0,0,0,0,0,0,0,0,-4.086,-4.0753,-4.0997,-4.1001,-4.1003,-4.1117,-4.1119,-4.1121,-4.1095,-4.1091,-4.1088,-4.1085,-4.1207,-4.1215,-4.1223,-4.1341,0,0,-4.1248,-4.1251,0,0,0,0,0,0,0,0,-4.0854,-4.087,-4.0999,-4.1001,-4.1003,-4.1087,-4.1076,-4.1195,-4.1095,-4.106,-4.1087,-4.1083,-4.1173,-4.1183,-4.1213,-4.1347,-4.1352,-4.1248,-4.1253,-4.1257,-4.1259,0,0,0,0,0,0,0,-4.0846,-4.0864,-4.1045,-4.1001,-4.1003,-4.0998,-4.101,-4.1099,-4.1134,-4.1062,-4.1061,-4.1075,-4.1173,-4.1206,-4.1216,-4.1354,-4.1248,-4.1255,-4.126,-4.1264,-4.1592,-4.1596,0,0,0,0,0,0,-4.0836,-4.0858,-4.1041,-4.1048,-4.0919,-4.1005,-4.1019,-4.1063,-4.1133,-4.114,-4.1078,-4.1074,-4.1193,-4.1207,-4.122,-4.1363,-4.1257,-4.1264,-4.1269,-4.1588,-4.1593,-4.1597,0,0,0,0,0,0,-4.0831,-4.0853,-4.1036,-4.0953,-4.0976,-4.1013,-4.1063,-4.1068,-4.11,-4.1144,-4.1151,-4.1105,-4.1191,-4.1209,-4.1311,-4.1367,-4.1268,-4.1275,-4.1584,-4.159,-4.1595,-4.165,0,0,0,0,0,0,-4.0824,-4.0851,-4.0895,-4.0954,-4.098,-4.1124,-4.1067,-4.1072,-4.1114,-4.1109,-4.1171,-4.1178,-4.119,-4.1299,-4.132,-4.1376,-4.1282,-4.1579,-4.1586,-4.1593,-4.1643,-4.1657,-4.1668,0,0,0,0,0,-4.0815,-4.0906,-4.0898,-4.092,-4.1036,-4.1128,-4.1143,-4.1154,-4.1119,-4.1164,-4.1193,-4.1176,-4.1359,-4.131,-4.1333,-4.1393,-4.1575,-4.1584,-4.1593,-4.1637,-4.1654,-4.1668,0,0,0,0,0,0,-4.0852,-4.0913,-4.0905,-4.1017,-4.1068,-4.1123,-4.118,-4.1171,-4.1232,-4.1225,-4.1238,-4.1252,-4.1357,-4.1385,-4.1331,-4.1512,-4.1462,-4.1476,-4.1488,-4.1504,-4.1517,-4.1507,-4.1288,0,0,0,0,0,-4.0874,-4.0942,-4.0992,-4.1087,-4.1112,-4.1142,-4.1182,-4.1187,-4.124,-4.1261,-4.1297,-4.1349,-4.1418,-4.1463,-4.1529,-4.1648,-4.1662,-4.1701,-4.1714,-4.1724,-4.1735,-4.1801,-4.1819,-4.1626,-4.1626,-4.1625,0,0,-4.0918,-4.096,-4.1002,-4.1095,-4.1134,-4.1206,-4.116,-4.1237,-4.129,-4.1273,-4.1371,-4.1401,-4.146,-4.1571,-4.1622,-4.1598,-4.1792,-4.1735,-4.1743,-4.1748,-4.1811,-4.183,-4.1846,-4.1632,-4.1631,-4.163,0,0,-4.1035,-4.1074,-4.1157,-4.1198,-4.1259,-4.1278,-4.1299,-4.1357,-4.1375,-4.1475,-4.1463,-4.1528,-4.1647,-4.1689,-4.1727,-4.1864,-4.1851,-4.1886,-4.195,-4.2015,-4.203,-4.2043,-4.2092,-4.2109,-4.1897,-4.1897,-4.1897,0,-4.1082,-4.1188,-4.1201,-4.1279,-4.1321,-4.131,-4.1394,-4.1434,-4.1513,-4.1543,-4.1515,-4.1665,-4.1704,-4.1826,-4.186,-4.1891,-4.1915,-4.1877,-4.2027,-4.204,-4.2053,-4.21,-4.2118,-4.1901,-4.19,-4.19,-4.19,0,-4.1243,-4.1318,-4.1378,-4.1455,-4.1504,-4.1585,-4.1611,-4.1659,-4.1661,-4.1685,-4.1787,-4.1835,-4.191,-4.194,-4.1943,-4.2063,-4.2047,-4.2023,-4.1973,-4.2075,-4.2119,-4.2137,-4.1906,-4.1905,-4.1904,-4.1903,0,0,-4.1383,-4.1468,-4.149,-4.1526,-4.1594,-4.1652,-4.1734,-4.1809,-4.185,-4.1906,-4.1975,-4.2078,-4.2057,-4.21,-4.2108,-4.2164,-4.227,-4.2134,-4.2136,-4.2157,-4.2406,-4.2422,-4.2442,-4.2264,-4.2267,-4.227,-4.2401,0,-4.1505,-4.1648,-4.1664,-4.1792,-4.1862,-4.1854,-4.1926,-4.1976,-4.2001,-4.2065,-4.2093,-4.2165,-4.2132,-4.2158,-4.2214,-4.2245,-4.232,-4.2237,-4.2328,-4.2331,-4.231,-4.2465,-4.2481,-4.2602,-4.2418,-4.2421,-4.2423,0,-4.1665,-4.1726,-4.1862,-4.1922,-4.1952,-4.2016,-4.2087,-4.2147,-4.2205,-4.222,-4.2269,-4.227,-4.2356,-4.2306,-4.2425,-4.2367,-4.2407,-4.2428,-4.2433,-4.244,-4.2381,-4.2475,-4.2641,-4.2659,-4.2451,-4.2448,-4.2446,0,-4.1752,-4.1869,-4.1965,-4.1996,-4.2069,-4.2115,-4.2147,-4.2202,-4.2246,-4.2309,-4.2338,-4.241,-4.2449,-4.2506,-4.2527,-4.2488,-4.2645,-4.2596,-4.2659,-4.2659,-4.269,-4.2687,-4.2864,-4.2719,-4.2719,-4.2719,-4.2718,0,-4.1884,-4.1967,-4.2005,-4.2064,-4.2158,-4.2176,-4.2269,-4.23,-4.2349,-4.2415,-4.2414,-4.2476,-4.2501,-4.2568,-4.2585,-4.2681,-4.27,-4.2714,-4.2717,-4.2712,-4.271,-4.2736,-4.2727,-4.2723,-4.2722,-4.2721,-4.2721,0,-4.1995,-4.2024,-4.2129,-4.219,-4.2208,-4.2274,-4.2327,-4.2385,-4.2411,-4.2495,-4.2515,-4.2556,-4.2635,-4.2662,-4.2758,-4.277,-4.2881,-4.2878,-4.2861,-4.2861,-4.2923,-4.2916,-4.312,-4.3147,-4.2986,-4.2988,-4.2989,0,-4.2076,-4.214,-4.221,-4.2254,-4.2288,-4.2359,-4.2405,-4.2427,-4.2475,-4.2548,-4.2597,-4.2676,-4.2739,-4.2865,-4.2904,-4.2977,-4.2975,-4.3042,-4.2986,-4.298,-4.2975,-4.2969,-4.2976,-4.3051,-4.3053,-4.3054,-4.3055,0,-4.2218,-4.223,-4.2296,-4.2368,-4.2423,-4.2481,-4.2537,-4.2573,-4.2604,-4.2659,-4.2739,-4.2789,-4.2887,-4.2965,-4.3041,-4.3076,-4.3071,-4.3073,-4.3092,-4.3086,-4.3073,-4.308,-4.2887,-4.3067,-4.3066,-4.3065,-4.3065,-4.3064,-4.2315,-4.2372,-4.243,-4.2504,-4.255,-4.2603,-4.266,-4.2695,-4.2762,-4.2843,-4.2853,-4.294,-4.2999,-4.3101,-4.314,-4.3208,-4.319,-4.3217,-4.3223,-4.3229,-4.3233,-4.3065,-4.3223,-4.3222,-4.3222,-4.3222,-4.3222,0,-4.2455,-4.2493,-4.2562,-4.264,-4.27,-4.2692,-4.2755,-4.2804,-4.288,-4.2936,-4.2999,-4.3093,-4.317,-4.3216,-4.3293,-4.3339,-4.3339,-4.3358,-4.3354,-4.3362,-4.3245,-4.3221,-4.3357,-4.3357,-4.3357,-4.3357,-4.3357,-4.3357,-4.2534,-4.263,-4.265,-4.2769,-4.2807,-4.2891,-4.2928,-4.2977,-4.3022,-4.3126,-4.319,-4.322,-4.3273,-4.3354,-4.3424,-4.3436,-4.3464,-4.3485,-4.3495,-4.3384,-4.337,-4.3357,-4.3334,-4.3491,-4.3491,-4.3605,-4.3606,-4.3607]},{"header":{"parameterUnit":"m.s-1","parameterCategory":1,"la1":30.2991,"la2":30.254,"lo1":-89.0895,"lo2":-89.0444,"dy":0.0017,"dx":0.0017,"nx":28,"ny":28,"refTime":"2024-02-08T09:00:00:Z","depth":0,"parameterNumber":3,"parameterNumberName":"V-component_of_WINDS"},"data":[0,0,0,0,0,0,0,0,0,0,0,0,0,0,0,0,0,0,0,0,0,0,0,0,0,0,0,0,0,0,0,0,0,0,0,0,0,0,0,0,0,0,0,0,0,0,0,0,0,0,0,0,0,0,0,0,0,0,1.5791,1.5791,0,1.585,1.585,1.5851,1.5879,1.5879,1.5879,1.5879,1.5938,1.594,1.5942,0,0,0,0,0,0,0,0,0,0,0,0,0,1.5704,1.5705,1.5791,1.5792,1.5792,1.585,1.585,1.5851,1.5879,1.5879,1.5879,1.5879,1.5938,1.594,1.5942,0,0,0,0,0,0,0,0,0,0,0,0,0,1.575,1.5706,1.5791,1.5813,1.5816,1.5849,1.585,1.5851,1.5879,1.5879,1.5879,1.5879,1.5937,1.594,1.5942,1.5958,0,0,1.5949,1.595,0,0,0,0,0,0,0,0,1.5747,1.5753,1.5809,1.5811,1.5814,1.5857,1.5842,1.5887,1.5879,1.5855,1.5879,1.5879,1.5911,1.5916,1.5927,1.5961,1.5963,1.595,1.5951,1.5952,1.5953,0,0,0,0,0,0,0,1.5744,1.5751,1.5814,1.581,1.5813,1.5821,1.5827,1.585,1.5883,1.5857,1.5859,1.5866,1.5913,1.5925,1.5929,1.5964,1.595,1.5952,1.5953,1.5954,1.6017,1.6017,0,0,0,0,0,0,1.5737,1.5748,1.5812,1.5816,1.578,1.5822,1.5829,1.5843,1.5882,1.5888,1.5866,1.5867,1.592,1.5926,1.5931,1.5954,1.5952,1.5954,1.5956,1.6017,1.6017,1.6017,0,0,0,0,0,0,1.5735,1.5743,1.581,1.5783,1.5792,1.5824,1.5839,1.5844,1.5856,1.5889,1.5895,1.5872,1.5921,1.5927,1.5952,1.5956,1.5956,1.5958,1.6016,1.6017,1.6017,1.5999,0,0,0,0,0,0,1.5733,1.5742,1.5748,1.5783,1.5793,1.5829,1.5839,1.5846,1.586,1.5862,1.5896,1.5902,1.5921,1.5948,1.5954,1.5959,1.596,1.6016,1.6016,1.6017,1.5999,1.5998,1.5998,0,0,0,0,0,1.573,1.5739,1.5748,1.5755,1.5801,1.5829,1.5835,1.5857,1.5861,1.5867,1.5889,1.5901,1.5955,1.595,1.5957,1.5963,1.6016,1.6016,1.6017,1.5999,1.5998,1.5998,0,0,0,0,0,0,1.5704,1.5744,1.5754,1.5775,1.5799,1.5834,1.5843,1.5855,1.5878,1.5879,1.5906,1.5913,1.5935,1.5952,1.5946,1.5982,1.5987,1.5988,1.5971,1.597,1.5969,1.5965,1.5962,0,0,0,0,0,1.57,1.572,1.5754,1.577,1.5782,1.581,1.5823,1.5839,1.5864,1.5874,1.5897,1.5921,1.5944,1.5958,1.598,1.6002,1.601,1.601,1.6009,1.6008,1.601,1.6025,1.6025,1.6019,1.6019,1.6019,0,0,1.5694,1.5719,1.5729,1.5766,1.5785,1.5806,1.5818,1.5838,1.5854,1.5877,1.5901,1.5919,1.5948,1.5972,1.5983,1.5986,1.6014,1.6009,1.6008,1.601,1.6025,1.6026,1.6026,1.6019,1.6019,1.6019,0,0,1.5693,1.5713,1.5729,1.5749,1.578,1.5799,1.5803,1.5837,1.585,1.5875,1.5894,1.5913,1.595,1.5971,1.5986,1.5996,1.6008,1.6002,1.5999,1.6013,1.6014,1.6014,1.6019,1.602,1.6004,1.6004,1.6003,0,1.5681,1.5712,1.5736,1.5756,1.5772,1.5795,1.5812,1.583,1.5866,1.5878,1.588,1.593,1.5951,1.5981,1.5983,1.5994,1.6001,1.5998,1.6012,1.6012,1.6013,1.6018,1.602,1.6003,1.6003,1.6003,1.6003,0,1.5696,1.5718,1.5727,1.5763,1.578,1.5799,1.5827,1.5841,1.5856,1.5875,1.5902,1.5928,1.5957,1.5966,1.5979,1.5998,1.5999,1.6006,1.6011,1.6013,1.6018,1.602,1.6001,1.6002,1.6002,1.6002,0,0,1.5679,1.5729,1.5732,1.575,1.5786,1.5803,1.5824,1.5853,1.5866,1.5891,1.5909,1.5942,1.595,1.5968,1.5984,1.5996,1.6004,1.6003,1.6004,1.6003,1.6029,1.6024,1.6025,1.6013,1.6013,1.6014,1.6027,0,1.5684,1.5721,1.5745,1.5773,1.5795,1.5817,1.5836,1.586,1.588,1.5901,1.5922,1.5946,1.5953,1.5964,1.5978,1.6001,1.601,1.6,1.6032,1.6032,1.6024,1.6028,1.6022,1.6033,1.6029,1.6029,1.603,0,1.5693,1.5719,1.575,1.5786,1.5796,1.5812,1.5842,1.5862,1.5891,1.5904,1.5925,1.5942,1.5966,1.5969,1.6003,1.5995,1.601,1.6024,1.6025,1.6029,1.6031,1.6033,1.6037,1.6039,1.6033,1.6032,1.6032,0,1.568,1.5721,1.5746,1.576,1.5802,1.5813,1.5832,1.5861,1.5878,1.5904,1.5916,1.5944,1.596,1.5982,1.6007,1.6007,1.6039,1.6044,1.6052,1.6051,1.6058,1.6057,1.6065,1.6066,1.6066,1.6066,1.6066,0,1.5683,1.5701,1.5741,1.5756,1.5778,1.5805,1.5826,1.5846,1.5873,1.5893,1.5914,1.5933,1.5964,1.5987,1.6007,1.6033,1.604,1.6052,1.6057,1.605,1.6049,1.606,1.6061,1.6066,1.6066,1.6066,1.6066,0,1.567,1.5697,1.5726,1.5765,1.5775,1.579,1.5823,1.5839,1.5861,1.5886,1.5894,1.5927,1.5955,1.5982,1.602,1.6033,1.606,1.6066,1.605,1.6053,1.606,1.606,1.6076,1.608,1.6077,1.6077,1.6077,0,1.567,1.5685,1.5727,1.5742,1.576,1.5784,1.5802,1.583,1.5848,1.5885,1.5897,1.5927,1.5952,1.5997,1.6024,1.6054,1.6061,1.6065,1.6066,1.606,1.6063,1.6062,1.6065,1.6065,1.6065,1.6064,1.6064,0,1.5669,1.5682,1.5707,1.5738,1.5759,1.5784,1.581,1.5821,1.5855,1.5874,1.5904,1.5924,1.5963,1.5993,1.6027,1.6046,1.6061,1.6064,1.6068,1.6062,1.6052,1.6059,1.6049,1.6064,1.6064,1.6064,1.6064,1.6064,1.5664,1.5679,1.5711,1.5739,1.5762,1.5786,1.5804,1.5828,1.5854,1.5888,1.5904,1.5934,1.5965,1.6012,1.6031,1.6056,1.6059,1.6064,1.6066,1.6067,1.6066,1.6048,1.6062,1.6062,1.6062,1.6062,1.6062,0,1.5664,1.5687,1.5712,1.5749,1.5771,1.5784,1.5814,1.5832,1.5859,1.5887,1.5912,1.5948,1.5978,1.6009,1.6041,1.6055,1.6063,1.6062,1.6062,1.6066,1.606,1.6055,1.6055,1.6055,1.6055,1.6055,1.6055,1.6055,1.5667,1.5694,1.5712,1.5752,1.5774,1.5804,1.5821,1.5844,1.5867,1.5905,1.5931,1.5951,1.5981,1.6016,1.6044,1.6053,1.6064,1.6062,1.6072,1.6066,1.6066,1.6067,1.6062,1.6064,1.6064,1.6077,1.6077,1.6077]}]]